| time (UTC) | temp C | wind direction | speed KPH | gust KPH | rain 1hr cm | rain 24hr cm | rain mn cm | humidity % | barometer mb |
| 20260510021611 | 25 | 156 | 0.0 | 0.0 | 0.00 | 0.03 | 0.03 | 48 | 1005.7 |
| 20260510020035 | 25 | 153 | 0.0 | 0.0 | 0.00 | 0.03 | 0.03 | 48 | 1005.0 |
| 20260510014547 | 25 | 133 | 0.0 | 0.0 | 0.00 | 0.03 | 0.03 | 46 | 1004.3 |
| 20260510013034 | 26 | 121 | 0.0 | 0.0 | 0.00 | 0.03 | 0.03 | 45 | 1004.1 |
| 20260510011533 | 26 | 145 | 0.0 | 0.0 | 0.00 | 0.03 | 0.03 | 44 | 1004.3 |
| 20260510010042 | 26 | 159 | 0.0 | 0.0 | 0.00 | 0.03 | 0.03 | 43 | 1004.1 |
| 20260510004531 | 27 | 138 | 0.0 | 0.0 | 0.00 | 0.03 | 0.03 | 42 | 1004.4 |
| 20260510003031 | 27 | 123 | 0.0 | 0.0 | 0.00 | 0.03 | 0.03 | 43 | 1004.3 |
| 20260510001533 | 27 | 156 | 0.0 | 0.0 | 0.00 | 0.03 | 0.03 | 42 | 1004.4 |
| 20260510000030 | 28 | 154 | 0.0 | 0.0 | 0.00 | 0.03 | 0.03 | 41 | 1004.4 |
| 20260509234528 | 28 | 154 | 0.0 | 0.0 | 0.00 | 0.03 | 0.03 | 38 | 1004.4 |
| 20260509233032 | 29 | 148 | 0.0 | 0.0 | 0.00 | 0.03 | 0.03 | 38 | 1004.5 |
| 20260509231524 | 29 | 155 | 0.0 | 0.0 | 0.00 | 0.03 | 0.03 | 34 | 1004.5 |
| 20260509230034 | 29 | 163 | 0.0 | 0.0 | 0.00 | 0.03 | 0.03 | 34 | 1004.7 |
| 20260509224522 | 29 | 104 | 0.0 | 0.0 | 0.00 | 0.56 | 0.03 | 34 | 1004.9 |
| 20260509223018 | 30 | 152 | 0.0 | 0.0 | 0.00 | 0.56 | 0.03 | 35 | 1005.2 |
| 20260509221517 | 30 | 145 | 0.0 | 1.6 | 0.00 | 0.56 | 0.03 | 32 | 1005.4 |
| 20260509220019 | 30 | 104 | 0.0 | 0.0 | 0.00 | 0.56 | 0.03 | 32 | 1005.5 |
| 20260509214515 | 30 | 13 | 0.0 | 0.0 | 0.00 | 0.56 | 0.03 | 36 | 1005.4 |
| 20260509213018 | 30 | 146 | 0.0 | 0.0 | 0.00 | 0.56 | 0.03 | 35 | 1005.5 |
| 20260509211512 | 29 | 200 | 0.0 | 0.0 | 0.00 | 0.56 | 0.03 | 35 | 1005.8 |
| 20260509210010 | 29 | 173 | 0.0 | 0.0 | 0.00 | 0.56 | 0.03 | 34 | 1005.9 |
| 20260509204509 | 29 | 180 | 0.0 | 0.0 | 0.00 | 0.56 | 0.03 | 36 | 1006.0 |
| 20260509203007 | 30 | 141 | 0.0 | 0.0 | 0.00 | 0.56 | 0.03 | 35 | 1006.1 |
| 20260509201510 | 29 | 138 | 0.0 | 0.0 | 0.00 | 0.56 | 0.03 | 34 | 1006.3 |
| 20260509200001 | 29 | 156 | 0.0 | 0.0 | 0.00 | 0.56 | 0.03 | 35 | 1006.5 |
| 20260509194602 | 29 | 79 | 0.0 | 0.0 | 0.00 | 0.56 | 0.03 | 33 | 1006.7 |
| 20260509193057 | 28 | 103 | 0.0 | 0.0 | 0.00 | 0.56 | 0.03 | 35 | 1006.9 |
| 20260509191607 | 28 | 81 | 0.0 | 0.0 | 0.00 | 0.56 | 0.03 | 36 | 1007.0 |
| 20260509190054 | 28 | 71 | 0.0 | 0.0 | 0.00 | 0.56 | 0.03 | 35 | 1007.2 |
| 20260509184558 | 28 | 126 | 0.0 | 0.0 | 0.00 | 0.56 | 0.03 | 37 | 1007.5 |
| 20260509183055 | 28 | 119 | 0.0 | 0.0 | 0.00 | 0.56 | 0.03 | 35 | 1007.6 |
| 20260509181553 | 28 | 307 | 0.0 | 0.0 | 0.00 | 0.56 | 0.03 | 40 | 1007.8 |
| 20260509180055 | 28 | 152 | 0.0 | 0.0 | 0.00 | 0.56 | 0.03 | 37 | 1008.0 |
| 20260509174547 | 27 | 140 | 0.0 | 0.0 | 0.00 | 0.56 | 0.03 | 43 | 1008.2 |
| 20260509173053 | 27 | 91 | 0.0 | 0.0 | 0.00 | 0.56 | 0.03 | 41 | 1008.4 |
| 20260509171540 | 26 | 161 | 0.0 | 0.0 | 0.00 | 0.56 | 0.03 | 43 | 1008.5 |
| 20260509170033 | 26 | 142 | 0.0 | 0.0 | 0.00 | 0.56 | 0.03 | 52 | 1008.7 |
| 20260509164529 | 25 | 165 | 0.0 | 0.0 | 0.00 | 0.56 | 0.03 | 58 | 1008.6 |
| 20260509163029 | 25 | 149 | 0.0 | 0.0 | 0.00 | 0.56 | 0.03 | 63 | 1009.0 |
| 20260509161522 | 23 | 169 | 0.0 | 0.0 | 0.00 | 0.56 | 0.03 | 64 | 1009.1 |
| 20260509160020 | 23 | 151 | 0.0 | 0.0 | 0.00 | 0.56 | 0.03 | 65 | 1009.0 |
| 20260509154515 | 23 | 161 | 0.0 | 0.0 | 0.00 | 0.56 | 0.03 | 64 | 1008.9 |
| 20260509153028 | 22 | 117 | 0.0 | 0.0 | 0.00 | 0.56 | 0.03 | 66 | 1008.8 |
| 20260509151511 | 22 | 110 | 0.0 | 0.0 | 0.00 | 0.56 | 0.03 | 66 | 1008.7 |
| 20260509150007 | 21 | 109 | 0.0 | 0.0 | 0.00 | 0.56 | 0.03 | 77 | 1008.7 |
| 20260509144502 | 20 | 109 | 0.0 | 0.0 | 0.00 | 0.56 | 0.03 | 83 | 1008.5 |
| 20260509143059 | 18 | 131 | 0.0 | 0.0 | 0.00 | 0.56 | 0.03 | 89 | 1008.7 |
| 20260509141555 | 17 | 131 | 0.0 | 0.0 | 0.00 | 0.56 | 0.03 | 92 | 1009.0 |
| 20260509140105 | 16 | 131 | 0.0 | 0.0 | 0.00 | 0.56 | 0.03 | 94 | 1008.9 |
| 20260509134553 | 16 | 129 | 0.0 | 0.0 | 0.00 | 0.56 | 0.03 | 94 | 1008.8 |
| 20260509133049 | 16 | 128 | 0.0 | 0.0 | 0.00 | 0.56 | 0.03 | 95 | 1008.6 |
| 20260509131547 | 15 | 128 | 0.0 | 0.0 | 0.00 | 0.56 | 0.03 | 95 | 1008.4 |
| 20260509130047 | 14 | 128 | 0.0 | 0.0 | 0.00 | 0.56 | 0.03 | 95 | 1008.2 |
| 20260509124551 | 14 | 128 | 0.0 | 0.0 | 0.03 | 0.56 | 0.03 | 95 | 1008.0 |
| 20260509123045 | 13 | 128 | 0.0 | 0.0 | 0.03 | 0.56 | 0.03 | 96 | 1008.0 |
| 20260509121543 | 12 | 128 | 0.0 | 0.0 | 0.03 | 0.56 | 0.03 | 94 | 1007.8 |
| 20260509120045 | 12 | 128 | 0.0 | 0.0 | 0.03 | 0.56 | 0.03 | 94 | 1007.6 |
| 20260509114542 | 12 | 128 | 0.0 | 0.0 | 0.00 | 0.53 | 0.00 | 93 | 1007.5 |
| 20260509113040 | 12 | 128 | 0.0 | 0.0 | 0.00 | 0.53 | 0.00 | 93 | 1007.3 |
| 20260509111539 | 12 | 128 | 0.0 | 0.0 | 0.00 | 0.53 | 0.00 | 93 | 1007.2 |
| 20260509110038 | 12 | 128 | 0.0 | 0.0 | 0.00 | 0.53 | 0.00 | 93 | 1007.1 |
| 20260509104536 | 12 | 128 | 0.0 | 0.0 | 0.00 | 0.53 | 0.00 | 93 | 1007.1 |
| 20260509103038 | 12 | 128 | 0.0 | 0.0 | 0.00 | 0.53 | 0.00 | 93 | 1007.2 |
| 20260509101532 | 13 | 128 | 0.0 | 0.0 | 0.00 | 0.53 | 0.00 | 92 | 1007.3 |
| 20260509100030 | 13 | 128 | 0.0 | 0.0 | 0.00 | 0.53 | 0.00 | 93 | 1007.5 |
| 20260509094531 | 13 | 128 | 0.0 | 0.0 | 0.00 | 0.53 | 0.00 | 92 | 1007.8 |
| 20260509093028 | 13 | 128 | 0.0 | 0.0 | 0.00 | 0.53 | 0.00 | 92 | 1007.8 |
| 20260509091526 | 13 | 128 | 0.0 | 0.0 | 0.00 | 0.53 | 0.00 | 92 | 1007.7 |
| 20260509090035 | 13 | 128 | 0.0 | 0.0 | 0.00 | 0.53 | 0.00 | 91 | 1007.8 |
| 20260509084525 | 14 | 128 | 0.0 | 0.0 | 0.00 | 0.53 | 0.00 | 92 | 1007.5 |
| 20260509083024 | 14 | 128 | 0.0 | 0.0 | 0.00 | 0.53 | 0.00 | 91 | 1007.6 |
| 20260509081521 | 14 | 128 | 0.0 | 0.0 | 0.00 | 0.53 | 0.00 | 91 | 1007.5 |
| 20260509080018 | 15 | 128 | 0.0 | 0.0 | 0.00 | 0.53 | 0.00 | 91 | 1007.8 |
| 20260509074516 | 15 | 128 | 0.0 | 0.0 | 0.00 | 0.53 | 0.00 | 90 | 1008.0 |
| 20260509073030 | 15 | 128 | 0.0 | 0.0 | 0.00 | 0.53 | 0.00 | 90 | 1008.3 |
| 20260509071512 | 15 | 128 | 0.0 | 0.0 | 0.00 | 0.53 | 0.00 | 89 | 1008.3 |
| 20260509070010 | 16 | 128 | 0.0 | 0.0 | 0.00 | 0.53 | 0.00 | 89 | 1008.1 |
| 20260509064508 | 16 | 128 | 0.0 | 0.0 | 0.00 | 0.53 | 0.00 | 89 | 1008.1 |
| 20260509063013 | 16 | 128 | 0.0 | 0.0 | 0.00 | 0.53 | 0.00 | 89 | 1008.1 |
| 20260509061505 | 16 | 121 | 0.0 | 0.0 | 0.00 | 0.53 | 0.00 | 89 | 1008.3 |
| 20260509060004 | 16 | 121 | 0.0 | 0.0 | 0.00 | 0.53 | 0.00 | 88 | 1008.2 |
| 20260509054501 | 16 | 121 | 0.0 | 0.0 | 0.00 | 0.53 | 0.00 | 87 | 1008.1 |
| 20260509053117 | 17 | 121 | 0.0 | 0.0 | 0.00 | 0.53 | 0.00 | 87 | 1008.0 |
| 20260509051610 | 17 | 121 | 0.0 | 0.0 | 0.00 | 0.53 | 0.00 | 87 | 1008.1 |
| 20260509050058 | 17 | 117 | 0.0 | 0.0 | 0.00 | 0.53 | 0.00 | 87 | 1008.0 |
| 20260509044554 | 17 | 116 | 0.0 | 0.0 | 0.00 | 0.53 | 0.53 | 87 | 1008.1 |
| 20260509043059 | 17 | 115 | 0.0 | 0.0 | 0.00 | 0.53 | 0.53 | 88 | 1008.2 |
| 20260509041555 | 17 | 150 | 0.0 | 0.0 | 0.00 | 0.53 | 0.53 | 89 | 1008.1 |
| 20260509040107 | 17 | 157 | 0.0 | 0.0 | 0.00 | 0.53 | 0.53 | 89 | 1007.9 |
| 20260509034552 | 17 | 157 | 0.0 | 0.0 | 0.00 | 0.53 | 0.53 | 89 | 1007.7 |
| 20260509033111 | 17 | 166 | 0.0 | 0.0 | 0.00 | 0.53 | 0.53 | 89 | 1007.0 |
| 20260509031552 | 17 | 166 | 0.0 | 0.0 | 0.00 | 0.53 | 0.53 | 88 | 1006.8 |
| 20260509030052 | 18 | 166 | 0.0 | 0.0 | 0.00 | 0.53 | 0.53 | 88 | 1006.3 |
| 20260509024558 | 18 | 166 | 0.0 | 0.0 | 0.00 | 0.53 | 0.53 | 88 | 1006.1 |
| 20260509023050 | 18 | 167 | 0.0 | 0.0 | 0.00 | 0.53 | 0.53 | 87 | 1006.1 |